Regional Weather Roundup
Issued by NWS Bismarck, ND

Home | Current Version | Previous Version | Text Only | Print | Product List | Glossary On
Versions: 1 2 3 4 5 6 7 8 9 10 11 12 13 14 15 16 17 18 19 20 21 22 23 24 25 26 27 28 29 30 31 32 33 34 35 36 37 38 39 40 41 42 43 44 45 46 47 48 49 50
000
ASUS43 KBIS 012010
RWRBIS

NWR BROADCAST TEXT
NATIONAL WEATHER SERVICE BISMARCK ND
300 PM CDT MON SEP 01 2014

NOTE: "FAIR" INDICATES FEW OR NO CLOUDS BELOW 12,000 FEET WITH NO
SIGNIFICANT WEATHER AND/OR OBSTRUCTIONS TO VISIBILITY.


CITY           SKY/WX    TMP DP  RH WIND       PRES   REMARKS
WILLISTON      PTSUNNY   72  40  31 W7G17     29.83F
MINOT          MOSUNNY   71  42  35 W14G24    29.79S
MINOT AFB      SUNNY     71  45  39 NW16G24   29.79R
BISMARCK       MOSUNNY   74  50  42 N14       29.82S
DICKINSON      MOSUNNY   70  45  40 W10G20    29.85F
GARRISON         N/A     70  45  40 NW10G21   29.81F
HETTINGER ARPT MOSUNNY   71  45  39 W12       29.89S
JAMESTOWN      PTSUNNY   73  55  53 W15       29.76F
BEACH            N/A     64  50  59 SW9       29.90S THUNDER
CARRINGTON     FAIR      70  55  60 NW14G20   29.78S
CROSBY         FAIR      72  41  33 NW14G23   29.82S
HARVEY         FAIR      70  50  49 NW16      29.78S
HAZEN          FAIR      72  45  37 NW14G20   29.84S
LINTON         FAIR      72  54  53 NW13G20   29.82S
MANDAN         FAIR      72  48  43 NW14      29.84S
OAKES            N/A     77  57  50 W13G18    29.77S
RUGBY          FAIR      68  54  60 W14       29.77F
STANLEY        MOCLDY    70  43  37 NW7       29.82F
TIOGA          MOCLDY    72  41  33 NW9       29.86S
WATFORD CITY   FAIR      68  45  42 W8        29.83S
$$

CITY           SKY/WX    TMP DP  RH WIND       PRES   REMARKS
GRAND FORKS    PTSUNNY   72  56  57 SW7       29.70R
GRAND FORKS AF PTSUNNY   72  55  56 N9        29.71S
DEVILS LAKE    PTSUNNY   66  54  63 NW12      29.74R
FARGO          SUNNY     76  55  48 W10       29.72F
CANDO          FAIR      70  48  46 NW14      29.76S
CAVALIER       TSTM      63  55  77 N12G17    29.73R
GRAFTON        MOCLDY    70  52  52 W28G36    29.70R THUNDER
GWINNER        PTCLDY    77  55  47 W6G16     29.77F
LANGDON        FAIR      72  50  46 W17G23    29.73S
ROLLA          FAIR      68  48  49 W15       29.77S
WALHALLA         N/A     59  59 100 SW7       29.72S
$$

CITY           SKY/WX    TMP DP  RH WIND       PRES   REMARKS
ABERDEEN       MOSUNNY   76  53  44 W9G20     29.79F
MOBRIDGE       SUNNY     74  53  48 NW12      29.80S
BUFFALO          N/A     62  47  57 VRB3      29.86R
RAPID CITY     TSTM      60  47  61 W14       29.96R
GLASGOW        MOSUNNY   70  46  42 VRB6      29.85F
SIDNEY         PTSUNNY   70  46  43 NW6       29.86F
WOLF POINT     SUNNY     73  47  39 SW15G21   29.85S
GLENDIVE       PTSUNNY   64  48  55 W10       29.90F
MILES CITY     PTSUNNY   73  38  27 W16G26    29.89F
BAKER          MOSUNNY   68  45  43 W13       29.90F
$$

CITY           SKY/WX    TMP DP  RH WIND       PRES   REMARKS
BILLINGS       MOSUNNY   71  33  24 W18G26    29.96F
GREAT FALLS    PTSUNNY   70  36  28 SW18G24   29.93F
REGINA         MOSUNNY   68  43  40 W17G25    29.79S
ESTEVAN        PTSUNNY   72  46  40 W10       29.80F
$$



USA.gov is the U.S. government's official web portal to all federal, state and local government web resources and services.